Time,TemperatureF,DewpointF,PressureIn,WindDirection,WindDirectionDegrees,WindSpeedMPH,WindSpeedGustMPH,Humidity,HourlyPrecipIn,Conditions,Clouds,dailyrainin,SolarRadiationWatts/m^2,SoftwareType,DateUTC
2013-02-03 00:05:00,28.5,26.0,30.05,SE,132,0.0,-999.0,90,-99.99,,,0.00,0,weatherlink.com 1.10,2013-02-03 05:05:00,
2013-02-03 00:20:00,28.5,26.0,30.04,SE,132,0.0,-999.0,90,-99.99,,,0.00,0,weatherlink.com 1.10,2013-02-03 05:20:00,
2013-02-03 00:35:00,28.4,26.0,30.04,SE,132,0.0,-999.0,90,-99.99,,,0.00,0,weatherlink.com 1.10,2013-02-03 05:35:00,
2013-02-03 00:50:00,28.3,26.0,30.03,SE,132,0.0,-999.0,90,-99.99,,,0.00,0,weatherlink.com 1.10,2013-02-03 05:50:00,
2013-02-03 01:05:00,28.2,26.0,30.02,SE,132,0.0,-999.0,90,-99.99,,,0.00,0,weatherlink.com 1.10,2013-02-03 06:05:00,
2013-02-03 01:20:00,28.3,26.0,30.02,SE,132,0.0,-999.0,91,-99.99,,,0.00,0,weatherlink.com 1.10,2013-02-03 06:20:00,
2013-02-03 01:35:00,28.3,26.0,30.01,SE,132,0.0,-999.0,91,-99.99,,,0.00,0,weatherlink.com 1.10,2013-02-03 06:35:00,
2013-02-03 01:50:00,28.0,26.0,30.01,SE,132,0.0,-999.0,90,-99.99,,,0.00,0,weatherlink.com 1.10,2013-02-03 06:50:00,
2013-02-03 02:05:00,27.8,26.0,30.01,SE,132,0.0,-999.0,91,-99.99,,,0.00,0,weatherlink.com 1.10,2013-02-03 07:05:00,
2013-02-03 02:20:00,27.6,25.0,30.00,SE,132,0.0,-999.0,91,-99.99,,,0.00,0,weatherlink.com 1.10,2013-02-03 07:20:00,
2013-02-03 02:35:00,27.3,25.0,30.00,SE,132,0.0,-999.0,91,-99.99,,,0.00,0,weatherlink.com 1.10,2013-02-03 07:35:00,
2013-02-03 02:50:00,27.1,25.0,29.99,SE,132,0.0,-999.0,92,-99.99,,,0.00,0,weatherlink.com 1.10,2013-02-03 07:50:00,
2013-02-03 03:05:00,26.9,25.0,29.98,SE,132,0.0,-999.0,92,-99.99,,,0.00,0,weatherlink.com 1.10,2013-02-03 08:05:00,
2013-02-03 03:20:00,26.6,25.0,29.98,SE,132,0.0,-999.0,92,-99.99,,,0.00,0,weatherlink.com 1.10,2013-02-03 08:20:00,
2013-02-03 03:36:00,26.1,24.0,29.97,SE,132,0.0,-999.0,92,-99.99,,,0.00,0,weatherlink.com 1.10,2013-02-03 08:36:00,
2013-02-03 03:51:00,25.9,24.0,29.97,SE,132,0.0,-999.0,93,-99.99,,,0.00,0,weatherlink.com 1.10,2013-02-03 08:51:00,
2013-02-03 04:06:00,25.6,24.0,29.96,SE,132,0.0,-999.0,93,-99.99,,,0.00,0,weatherlink.com 1.10,2013-02-03 09:06:00,
2013-02-03 04:21:00,25.7,24.0,29.96,SE,132,0.0,-999.0,94,-99.99,,,0.00,0,weatherlink.com 1.10,2013-02-03 09:21:00,
2013-02-03 04:36:00,25.5,24.0,29.96,SE,132,0.0,-999.0,94,-99.99,,,0.00,0,weatherlink.com 1.10,2013-02-03 09:36:00,
2013-02-03 04:51:00,25.2,24.0,29.96,SE,132,0.0,-999.0,94,-99.99,,,0.00,0,weatherlink.com 1.10,2013-02-03 09:51:00,
2013-02-03 05:06:00,25.1,24.0,29.96,SE,132,0.0,-999.0,94,-99.99,,,0.00,0,weatherlink.com 1.10,2013-02-03 10:06:00,
2013-02-03 05:21:00,25.7,25.0,29.96,SE,132,0.0,-999.0,95,-99.99,,,0.00,0,weatherlink.com 1.10,2013-02-03 10:21:00,
2013-02-03 05:36:00,25.8,25.0,29.96,SE,132,0.0,-999.0,95,-99.99,,,0.00,0,weatherlink.com 1.10,2013-02-03 10:36:00,
2013-02-03 05:51:00,25.7,25.0,29.97,SE,132,0.0,-999.0,95,-99.99,,,0.00,0,weatherlink.com 1.10,2013-02-03 10:51:00,
2013-02-03 06:06:00,25.7,25.0,29.96,SE,132,0.0,-999.0,95,-99.99,,,0.00,0,weatherlink.com 1.10,2013-02-03 11:06:00,
2013-02-03 06:21:00,25.8,25.0,29.96,SE,132,0.0,-999.0,95,-99.99,,,0.00,0,weatherlink.com 1.10,2013-02-03 11:21:00,
2013-02-03 06:36:00,25.8,25.0,29.97,SE,132,0.0,-999.0,95,-99.99,,,0.00,0,weatherlink.com 1.10,2013-02-03 11:36:00,
2013-02-03 06:51:00,25.8,25.0,29.96,SE,132,0.0,-999.0,95,-99.99,,,0.00,0,weatherlink.com 1.10,2013-02-03 11:51:00,
2013-02-03 07:06:00,25.8,25.0,29.97,SE,132,0.0,-999.0,95,-99.99,,,0.00,0,weatherlink.com 1.10,2013-02-03 12:06:00,
2013-02-03 07:21:00,25.7,25.0,29.97,SE,132,0.0,-999.0,95,-99.99,,,0.00,9,weatherlink.com 1.10,2013-02-03 12:21:00,
2013-02-03 07:36:00,25.7,25.0,29.97,SE,132,0.0,-999.0,95,-99.99,,,0.00,26,weatherlink.com 1.10,2013-02-03 12:36:00,
2013-02-03 07:51:00,25.8,25.0,29.98,SE,132,0.0,-999.0,95,-99.99,,,0.00,30,weatherlink.com 1.10,2013-02-03 12:51:00,
2013-02-03 08:06:00,25.9,25.0,29.98,SE,132,0.0,-999.0,95,-99.99,,,0.00,44,weatherlink.com 1.10,2013-02-03 13:06:00,
2013-02-03 08:21:00,26.0,25.0,29.98,SE,132,0.0,-999.0,95,-99.99,,,0.00,47,weatherlink.com 1.10,2013-02-03 13:21:00,
2013-02-03 08:36:00,26.3,25.0,29.98,SE,132,0.0,-999.0,95,-99.99,,,0.00,62,weatherlink.com 1.10,2013-02-03 13:36:00,
2013-02-03 08:51:00,26.6,25.0,29.98,SE,132,0.0,-999.0,95,-99.99,,,0.00,72,weatherlink.com 1.10,2013-02-03 13:51:00,
2013-02-03 09:06:00,26.9,25.0,29.98,SE,132,0.0,-999.0,94,-99.99,,,0.00,88,weatherlink.com 1.10,2013-02-03 14:06:00,
2013-02-03 09:21:00,27.6,26.0,29.97,SE,132,0.0,-999.0,95,-99.99,,,0.00,121,weatherlink.com 1.10,2013-02-03 14:21:00,
2013-02-03 09:36:00,28.3,27.0,29.97,SE,132,0.0,-999.0,94,-99.99,,,0.00,163,weatherlink.com 1.10,2013-02-03 14:36:00,
2013-02-03 09:51:00,28.8,27.0,29.96,SE,132,0.0,-999.0,93,-99.99,,,0.00,146,weatherlink.com 1.10,2013-02-03 14:51:00,
2013-02-03 10:06:00,29.5,28.0,29.96,SE,132,0.0,-999.0,92,-99.99,,,0.00,171,weatherlink.com 1.10,2013-02-03 15:06:00,
2013-02-03 10:21:00,30.1,27.0,29.96,SE,132,0.0,-999.0,89,-99.99,,,0.00,171,weatherlink.com 1.10,2013-02-03 15:21:00,
2013-02-03 10:36:00,30.6,27.0,29.95,SE,132,0.0,-999.0,86,-99.99,,,0.00,197,weatherlink.com 1.10,2013-02-03 15:36:00,
2013-02-03 10:51:00,31.2,27.0,29.95,SE,132,0.0,-999.0,85,-99.99,,,0.00,246,weatherlink.com 1.10,2013-02-03 15:51:00,
2013-02-03 11:06:00,31.9,27.0,29.95,SE,132,0.0,-999.0,83,-99.99,,,0.00,181,weatherlink.com 1.10,2013-02-03 16:06:00,
2013-02-03 11:21:00,31.9,27.0,29.94,SE,132,0.0,-999.0,81,-99.99,,,0.00,111,weatherlink.com 1.10,2013-02-03 16:21:00,
2013-02-03 11:37:00,32.2,27.0,29.94,SE,132,0.0,-999.0,80,-99.99,,,0.00,146,weatherlink.com 1.10,2013-02-03 16:37:00,
2013-02-03 11:52:00,32.6,27.0,29.93,SE,132,0.0,-999.0,80,-99.99,,,0.00,178,weatherlink.com 1.10,2013-02-03 16:52:00,
2013-02-03 12:07:00,32.9,28.0,29.92,NW,313,0.0,-999.0,81,-99.99,,,0.00,211,weatherlink.com 1.10,2013-02-03 17:07:00,
2013-02-03 12:22:00,33.4,28.0,29.91,WNW,290,1.0,-999.0,79,-99.99,,,0.00,121,weatherlink.com 1.10,2013-02-03 17:22:00,
2013-02-03 12:37:00,32.7,28.0,29.91,West,266,1.0,-999.0,83,-99.99,,,0.00,186,weatherlink.com 1.10,2013-02-03 17:37:00,
2013-02-03 12:52:00,32.6,29.0,29.90,WSW,244,0.0,-999.0,85,-99.99,,,0.00,207,weatherlink.com 1.10,2013-02-03 17:52:00,
2013-02-03 13:07:00,32.9,29.0,29.89,South,186,2.0,-999.0,85,-99.99,,,0.00,237,weatherlink.com 1.10,2013-02-03 18:07:00,
2013-02-03 13:22:00,32.8,28.0,29.89,WSW,252,1.0,-999.0,83,-99.99,,,0.00,257,weatherlink.com 1.10,2013-02-03 18:22:00,
2013-02-03 13:38:00,33.0,28.0,29.88,West,267,0.0,-999.0,82,-99.99,,,0.00,199,weatherlink.com 1.10,2013-02-03 18:38:00,
2013-02-03 13:52:00,33.6,29.0,29.88,West,270,0.0,-999.0,82,-99.99,,,0.00,301,weatherlink.com 1.10,2013-02-03 18:52:00,
2013-02-03 14:07:00,34.0,29.0,29.87,WSW,242,0.0,-999.0,81,-99.99,,,0.00,473,weatherlink.com 1.10,2013-02-03 19:07:00,
2013-02-03 14:22:00,34.0,28.0,29.87,SSW,201,0.0,-999.0,79,-99.99,,,0.00,104,weatherlink.com 1.10,2013-02-03 19:22:00,
2013-02-03 14:37:00,33.7,28.0,29.87,WNW,300,0.0,-999.0,79,-99.99,,,0.00,162,weatherlink.com 1.10,2013-02-03 19:37:00,
2013-02-03 14:52:00,34.0,28.0,29.87,SE,126,2.0,-999.0,80,-99.99,,,0.00,146,weatherlink.com 1.10,2013-02-03 19:52:00,
2013-02-03 15:07:00,34.4,28.0,29.87,ESE,105,0.0,-999.0,78,-99.99,,,0.00,139,weatherlink.com 1.10,2013-02-03 20:07:00,
2013-02-03 15:22:00,34.2,28.0,29.87,West,274,1.0,-999.0,77,-99.99,,,0.00,91,weatherlink.com 1.10,2013-02-03 20:22:00,
2013-02-03 15:37:00,33.9,27.0,29.87,WSW,257,0.0,-999.0,77,-99.99,,,0.00,132,weatherlink.com 1.10,2013-02-03 20:37:00,
2013-02-03 15:52:00,34.3,28.0,29.88,West,264,0.0,-999.0,77,-99.99,,,0.00,95,weatherlink.com 1.10,2013-02-03 20:52:00,
2013-02-03 16:07:00,34.3,28.0,29.87,South,179,0.0,-999.0,78,-99.99,,,0.00,102,weatherlink.com 1.10,2013-02-03 21:07:00,
2013-02-03 16:22:00,34.1,28.0,29.87,West,268,0.0,-999.0,78,-99.99,,,0.00,42,weatherlink.com 1.10,2013-02-03 21:22:00,
2013-02-03 16:37:00,33.8,28.0,29.86,West,268,0.0,-999.0,80,-99.99,,,0.00,42,weatherlink.com 1.10,2013-02-03 21:37:00,
2013-02-03 16:52:00,33.5,28.0,29.87,West,272,0.0,-999.0,81,-99.99,,,0.00,25,weatherlink.com 1.10,2013-02-03 21:52:00,
2013-02-03 17:07:00,33.1,29.0,29.87,West,275,0.0,-999.0,83,-99.99,,,0.00,9,weatherlink.com 1.10,2013-02-03 22:07:00,
2013-02-03 17:22:00,32.9,29.0,29.87,WNW,288,0.0,-999.0,84,-99.99,,,0.00,7,weatherlink.com 1.10,2013-02-03 22:22:00,
2013-02-03 17:37:00,32.7,29.0,29.87,WNW,288,0.0,-999.0,86,-99.99,,,0.00,0,weatherlink.com 1.10,2013-02-03 22:37:00,
2013-02-03 17:52:00,32.4,29.0,29.87,WNW,288,0.0,-999.0,86,-99.99,,,0.00,0,weatherlink.com 1.10,2013-02-03 22:52:00,
2013-02-03 18:07:00,32.1,29.0,29.87,WNW,288,0.0,-999.0,87,-99.99,,,0.00,0,weatherlink.com 1.10,2013-02-03 23:07:00,
2013-02-03 18:22:00,31.6,28.0,29.88,WNW,288,0.0,-999.0,87,-99.99,,,0.00,0,weatherlink.com 1.10,2013-02-03 23:22:00,
2013-02-03 18:37:00,31.1,28.0,29.88,WNW,288,0.0,-999.0,88,-99.99,,,0.00,0,weatherlink.com 1.10,2013-02-03 23:37:00,
2013-02-03 18:52:00,30.9,28.0,29.89,WNW,288,0.0,-999.0,89,-99.99,,,0.00,0,weatherlink.com 1.10,2013-02-03 23:52:00,
2013-02-03 19:07:00,30.7,28.0,29.89,WNW,288,0.0,-999.0,89,-99.99,,,0.00,0,weatherlink.com 1.10,2013-02-04 00:07:00,
2013-02-03 19:22:00,30.5,28.0,29.90,WNW,288,0.0,-999.0,89,-99.99,,,0.00,0,weatherlink.com 1.10,2013-02-04 00:22:00,
2013-02-03 19:37:00,30.6,28.0,29.90,WNW,288,1.0,-999.0,90,-99.99,,,0.00,0,weatherlink.com 1.10,2013-02-04 00:37:00,
2013-02-03 19:52:00,30.9,28.0,29.90,WNW,288,1.0,-999.0,90,-99.99,,,0.00,0,weatherlink.com 1.10,2013-02-04 00:52:00,
2013-02-03 20:07:00,31.2,29.0,29.91,WNW,288,1.0,-999.0,90,-99.99,,,0.00,0,weatherlink.com 1.10,2013-02-04 01:07:00,
2013-02-03 20:22:00,31.7,29.0,29.91,WNW,287,1.0,-999.0,88,-99.99,,,0.00,0,weatherlink.com 1.10,2013-02-04 01:22:00,
2013-02-03 20:37:00,32.2,29.0,29.92,West,271,2.0,-999.0,87,-99.99,,,0.00,0,weatherlink.com 1.10,2013-02-04 01:37:00,
2013-02-03 20:52:00,32.4,28.0,29.93,West,279,2.0,-999.0,85,-99.99,,,0.00,0,weatherlink.com 1.10,2013-02-04 01:52:00,
2013-02-03 21:07:00,32.5,28.0,29.93,WNW,282,4.0,-999.0,83,-99.99,,,0.00,0,weatherlink.com 1.10,2013-02-04 02:07:00,
2013-02-03 21:22:00,32.6,26.0,29.95,WNW,287,4.0,-999.0,77,-99.99,,,0.00,0,weatherlink.com 1.10,2013-02-04 02:22:00,
2013-02-03 21:37:00,32.1,26.0,29.96,WNW,292,6.0,-999.0,78,-99.99,,,0.00,0,weatherlink.com 1.10,2013-02-04 02:37:00,
2013-02-03 21:52:00,30.7,25.0,29.95,West,281,4.0,-999.0,78,-99.99,,,0.00,0,weatherlink.com 1.10,2013-02-04 02:52:00,
2013-02-03 22:07:00,31.0,23.0,29.96,WNW,288,4.0,-999.0,72,-99.99,,,0.00,0,weatherlink.com 1.10,2013-02-04 03:07:00,
2013-02-03 22:22:00,31.3,22.0,29.96,WNW,290,0.0,-999.0,69,-99.99,,,0.00,0,weatherlink.com 1.10,2013-02-04 03:22:00,
2013-02-03 22:37:00,31.1,21.0,29.97,WNW,284,5.0,-999.0,65,-99.99,,,0.00,0,weatherlink.com 1.10,2013-02-04 03:37:00,
2013-02-03 22:52:00,30.9,19.0,29.97,WNW,286,4.0,-999.0,62,-99.99,,,0.00,0,weatherlink.com 1.10,2013-02-04 03:52:00,
2013-02-03 23:07:00,30.6,18.0,29.98,NW,310,4.0,-999.0,60,-99.99,,,0.00,0,weatherlink.com 1.10,2013-02-04 04:07:00,
2013-02-03 23:22:00,30.3,18.0,29.98,WNW,287,3.0,-999.0,60,-99.99,,,0.00,0,weatherlink.com 1.10,2013-02-04 04:22:00,
2013-02-03 23:37:00,30.0,18.0,29.99,NNW,340,1.0,-999.0,61,-99.99,,,0.00,0,weatherlink.com 1.10,2013-02-04 04:37:00,
2013-02-03 23:52:00,29.7,18.0,29.99,NW,310,0.0,-999.0,62,-99.99,,,0.00,0,weatherlink.com 1.10,2013-02-04 04:52:00,